| time (UTC) | temp F | wind direction | speed MPH | gust MPH | rain 1hr in | rain 24hr in | rain mn in | humidity % | barometer mb |
| 20260505151555 | 81 | 151 | 1.0 | 5.0 | 0.00 | 0.00 | 0.00 | 75 | 1005.4 |
| 20260505151055 | 80 | 252 | 0.0 | 6.0 | 0.00 | 0.00 | 0.00 | 76 | 1005.6 |
| 20260505150555 | 79 | 135 | 1.0 | 6.0 | 0.00 | 0.00 | 0.00 | 76 | 1005.6 |
| 20260505150110 | 78 | 182 | 1.0 | 5.0 | 0.00 | 0.00 | 0.00 | 77 | 1005.6 |
| 20260505140555 | 74 | 24 | 1.0 | 6.0 | 0.00 | 0.00 | 0.00 | 82 | 1005.4 |
| 20260505130111 | 71 | 198 | 0.0 | 3.0 | 0.00 | 0.00 | 0.00 | 88 | 1005.2 |
| 20260505124611 | 70 | 0 | 0.0 | 3.0 | 0.00 | 0.00 | 0.00 | 88 | 1005.1 |
| 20260505124057 | 70 | 0 | 0.0 | 2.0 | 0.00 | 0.00 | 0.00 | 89 | 1005.1 |
| 20260505123557 | 70 | 0 | 0.0 | 2.0 | 0.00 | 0.00 | 0.00 | 88 | 1005.0 |
| 20260505123116 | 70 | 0 | 0.0 | 2.0 | 0.00 | 0.00 | 0.00 | 88 | 1004.7 |
| 20260505122554 | 70 | 53 | 0.0 | 2.0 | 0.00 | 0.00 | 0.00 | 89 | 1004.7 |
| 20260505122055 | 70 | 0 | 0.0 | 4.0 | 0.00 | 0.00 | 0.00 | 88 | 1004.5 |
| 20260505121623 | 70 | 0 | 1.0 | 4.0 | 0.00 | 0.00 | 0.00 | 88 | 1004.5 |
| 20260505121055 | 70 | 0 | 1.0 | 4.0 | 0.00 | 0.00 | 0.00 | 89 | 1004.3 |
| 20260505120555 | 69 | 0 | 0.0 | 5.0 | 0.00 | 0.00 | 0.00 | 89 | 1004.2 |
| 20260505120058 | 69 | 180 | 1.0 | 5.0 | 0.00 | 0.00 | 0.00 | 89 | 1004.1 |
| 20260505115554 | 69 | 0 | 0.0 | 4.0 | 0.00 | 0.00 | 0.00 | 89 | 1004.1 |
| 20260505115054 | 69 | 0 | 1.0 | 4.0 | 0.00 | 0.00 | 0.00 | 89 | 1004.1 |
| 20260505114555 | 69 | 166 | 0.0 | 5.0 | 0.00 | 0.00 | 0.00 | 89 | 1003.9 |
| 20260505114054 | 69 | 36 | 1.0 | 8.0 | 0.00 | 0.00 | 0.00 | 89 | 1003.9 |
| 20260505113554 | 69 | 81 | 1.0 | 8.0 | 0.00 | 0.00 | 0.00 | 89 | 1003.7 |
| 20260505113103 | 69 | 48 | 1.0 | 8.0 | 0.00 | 0.00 | 0.00 | 89 | 1003.7 |
| 20260505112555 | 69 | 44 | 0.0 | 4.0 | 0.00 | 0.00 | 0.00 | 89 | 1003.8 |
| 20260505112056 | 69 | 223 | 1.0 | 5.0 | 0.00 | 0.00 | 0.00 | 89 | 1004.0 |
| 20260505111556 | 69 | 80 | 0.0 | 5.0 | 0.00 | 0.00 | 0.00 | 89 | 1004.0 |
| 20260505111057 | 69 | 78 | 0.0 | 4.0 | 0.00 | 0.00 | 0.00 | 89 | 1003.9 |
| 20260505110557 | 69 | 46 | 0.0 | 4.0 | 0.00 | 0.00 | 0.00 | 89 | 1004.0 |
| 20260505102056 | 69 | 189 | 0.0 | 4.0 | 0.00 | 0.00 | 0.00 | 87 | 1003.9 |
| 20260505101559 | 69 | 32 | 1.0 | 5.0 | 0.00 | 0.00 | 0.00 | 87 | 1003.8 |
| 20260505101056 | 70 | 0 | 1.0 | 5.0 | 0.00 | 0.00 | 0.00 | 87 | 1003.9 |
| 20260505100555 | 70 | 65 | 1.0 | 6.0 | 0.00 | 0.00 | 0.00 | 87 | 1003.8 |
| 20260505100136 | 70 | 202 | 1.0 | 6.0 | 0.00 | 0.00 | 0.00 | 87 | 1004.0 |
| 20260505095558 | 70 | 73 | 1.0 | 5.0 | 0.00 | 0.00 | 0.00 | 87 | 1003.9 |
| 20260505095055 | 70 | 53 | 1.0 | 4.0 | 0.00 | 0.00 | 0.00 | 87 | 1004.0 |
| 20260505094556 | 70 | 64 | 1.0 | 4.0 | 0.00 | 0.00 | 0.00 | 87 | 1004.0 |
| 20260505094054 | 70 | 217 | 1.0 | 4.0 | 0.00 | 0.00 | 0.00 | 87 | 1004.0 |
| 20260505093555 | 70 | 260 | 0.0 | 4.0 | 0.00 | 0.00 | 0.00 | 87 | 1004.0 |
| 20260505093058 | 70 | 165 | 1.0 | 4.0 | 0.00 | 0.00 | 0.00 | 87 | 1004.0 |
| 20260505092558 | 70 | 0 | 0.0 | 4.0 | 0.00 | 0.00 | 0.00 | 86 | 1004.2 |
| 20260505092056 | 70 | 0 | 0.0 | 8.0 | 0.00 | 0.00 | 0.00 | 86 | 1004.3 |
| 20260505091616 | 70 | 9 | 1.0 | 8.0 | 0.00 | 0.00 | 0.00 | 86 | 1004.3 |
| 20260505091055 | 70 | 180 | 1.0 | 6.0 | 0.00 | 0.00 | 0.00 | 86 | 1004.3 |
| 20260505090555 | 70 | 76 | 1.0 | 6.0 | 0.00 | 0.00 | 0.00 | 86 | 1004.2 |
| 20260505085556 | 70 | 0 | 0.0 | 4.0 | 0.00 | 0.00 | 0.00 | 86 | 1004.4 |
| 20260505085059 | 70 | 78 | 1.0 | 4.0 | 0.00 | 0.00 | 0.00 | 85 | 1004.5 |
| 20260505084557 | 70 | 69 | 0.0 | 5.0 | 0.00 | 0.00 | 0.00 | 85 | 1004.6 |
| 20260505084057 | 70 | 205 | 1.0 | 5.0 | 0.00 | 0.00 | 0.00 | 85 | 1004.6 |
| 20260505083557 | 70 | 0 | 1.0 | 5.0 | 0.00 | 0.00 | 0.00 | 85 | 1004.5 |
| 20260505083056 | 70 | 82 | 1.0 | 8.0 | 0.00 | 0.00 | 0.00 | 84 | 1004.5 |
| 20260505082555 | 70 | 0 | 1.0 | 8.0 | 0.00 | 0.00 | 0.00 | 84 | 1004.3 |
| 20260505082055 | 71 | 47 | 1.0 | 6.0 | 0.00 | 0.00 | 0.00 | 84 | 1004.4 |
| 20260505081554 | 71 | 213 | 1.0 | 6.0 | 0.00 | 0.00 | 0.00 | 83 | 1004.5 |
| 20260505081055 | 71 | 71 | 1.0 | 6.0 | 0.00 | 0.00 | 0.00 | 83 | 1004.4 |
| 20260505080556 | 71 | 58 | 1.0 | 7.0 | 0.00 | 0.00 | 0.00 | 83 | 1004.4 |
| 20260505080056 | 71 | 47 | 1.0 | 7.0 | 0.00 | 0.00 | 0.00 | 82 | 1004.5 |
| 20260505075552 | 71 | 0 | 1.0 | 6.0 | 0.00 | 0.00 | 0.00 | 82 | 1004.4 |
| 20260505075055 | 72 | 0 | 2.0 | 6.0 | 0.00 | 0.00 | 0.00 | 82 | 1004.6 |
| 20260505074555 | 72 | 13 | 1.0 | 6.0 | 0.00 | 0.00 | 0.00 | 82 | 1004.4 |
| 20260505074058 | 72 | 201 | 1.0 | 7.0 | 0.00 | 0.00 | 0.00 | 81 | 1004.5 |
| 20260505073554 | 72 | 306 | 2.0 | 7.0 | 0.00 | 0.00 | 0.00 | 81 | 1004.7 |
| 20260505073100 | 72 | 47 | 1.0 | 6.0 | 0.00 | 0.00 | 0.00 | 81 | 1004.8 |
| 20260505072555 | 72 | 268 | 1.0 | 6.0 | 0.00 | 0.00 | 0.00 | 80 | 1004.9 |
| 20260505072056 | 72 | 44 | 2.0 | 11.0 | 0.00 | 0.00 | 0.00 | 80 | 1004.9 |
| 20260505071553 | 72 | 101 | 3.0 | 11.0 | 0.00 | 0.00 | 0.00 | 80 | 1004.8 |
| 20260505071055 | 72 | 328 | 1.0 | 8.0 | 0.00 | 0.00 | 0.00 | 80 | 1004.9 |
| 20260505070555 | 72 | 47 | 1.0 | 8.0 | 0.00 | 0.00 | 0.00 | 79 | 1005.0 |
| 20260505070058 | 73 | 189 | 1.0 | 8.0 | 0.00 | 0.00 | 0.00 | 79 | 1004.9 |
| 20260505065555 | 73 | 127 | 1.0 | 8.0 | 0.00 | 0.00 | 0.00 | 79 | 1005.1 |
| 20260505065055 | 73 | 54 | 2.0 | 8.0 | 0.00 | 0.00 | 0.00 | 78 | 1005.2 |
| 20260505064602 | 73 | 180 | 2.0 | 6.0 | 0.00 | 0.00 | 0.00 | 78 | 1005.2 |
| 20260505064055 | 73 | 38 | 1.0 | 6.0 | 0.00 | 0.00 | 0.00 | 77 | 1005.3 |
| 20260505063554 | 73 | 175 | 1.0 | 7.0 | 0.00 | 0.00 | 0.00 | 77 | 1005.4 |
| 20260505063055 | 73 | 207 | 2.0 | 8.0 | 0.00 | 0.00 | 0.00 | 77 | 1005.4 |
| 20260505062555 | 73 | 165 | 1.0 | 8.0 | 0.00 | 0.00 | 0.00 | 76 | 1005.4 |
| 20260505062055 | 73 | 160 | 1.0 | 7.0 | 0.00 | 0.00 | 0.00 | 76 | 1005.5 |
| 20260505061556 | 74 | 175 | 1.0 | 6.0 | 0.00 | 0.00 | 0.00 | 76 | 1005.5 |
| 20260505061055 | 74 | 126 | 2.0 | 6.0 | 0.00 | 0.00 | 0.00 | 75 | 1005.6 |
| 20260505060559 | 74 | 315 | 1.0 | 6.0 | 0.00 | 0.00 | 0.00 | 75 | 1005.5 |
| 20260505060059 | 74 | 80 | 2.0 | 6.0 | 0.00 | 0.00 | 0.00 | 75 | 1005.6 |
| 20260505055555 | 74 | 22 | 1.0 | 5.0 | 0.00 | 0.00 | 0.00 | 75 | 1005.5 |
| 20260505055055 | 74 | 75 | 1.0 | 9.0 | 0.00 | 0.00 | 0.00 | 75 | 1005.5 |
| 20260505054618 | 74 | 146 | 1.0 | 9.0 | 0.00 | 0.00 | 0.00 | 75 | 1005.6 |
| 20260505054058 | 74 | 128 | 1.0 | 9.0 | 0.00 | 0.00 | 0.00 | 75 | 1005.5 |
| 20260505053555 | 74 | 71 | 1.0 | 6.0 | 0.00 | 0.00 | 0.00 | 74 | 1005.7 |
| 20260505053056 | 74 | 236 | 1.0 | 7.0 | 0.00 | 0.00 | 0.00 | 74 | 1005.5 |
| 20260505052555 | 74 | 85 | 2.0 | 7.0 | 0.00 | 0.00 | 0.00 | 74 | 1005.6 |
| 20260505052054 | 74 | 186 | 1.0 | 6.0 | 0.00 | 0.00 | 0.00 | 74 | 1005.4 |
| 20260505051557 | 75 | 5 | 1.0 | 8.0 | 0.00 | 0.00 | 0.00 | 74 | 1005.5 |
| 20260505051056 | 75 | 242 | 1.0 | 8.0 | 0.00 | 0.00 | 0.00 | 74 | 1005.6 |
| 20260505050556 | 75 | 170 | 2.0 | 6.0 | 0.00 | 0.00 | 0.00 | 74 | 1005.6 |
| 20260505041605 | 75 | 99 | 2.0 | 7.0 | 0.00 | 0.00 | 0.00 | 74 | 1005.8 |
| 20260505041054 | 75 | 54 | 1.0 | 7.0 | 0.00 | 0.00 | 0.00 | 75 | 1005.8 |
| 20260505040556 | 74 | 205 | 1.0 | 5.0 | 0.00 | 0.00 | 0.00 | 75 | 1005.8 |
| 20260505040100 | 74 | 55 | 1.0 | 6.0 | 0.00 | 0.00 | 0.00 | 75 | 1005.8 |
| 20260505035555 | 74 | 194 | 0.0 | 7.0 | 0.00 | 0.00 | 0.00 | 75 | 1005.9 |
| 20260505035055 | 74 | 80 | 2.0 | 7.0 | 0.00 | 0.00 | 0.00 | 75 | 1005.8 |
| 20260505034554 | 74 | 66 | 1.0 | 6.0 | 0.00 | 0.00 | 0.00 | 75 | 1005.8 |
| 20260505034056 | 74 | 81 | 1.0 | 5.0 | 0.00 | 0.00 | 0.00 | 75 | 1005.8 |
| 20260505033556 | 74 | 0 | 2.0 | 5.0 | 0.00 | 0.00 | 0.00 | 75 | 1005.8 |
| 20260505033056 | 75 | 61 | 2.0 | 5.0 | 0.00 | 0.00 | 0.00 | 75 | 1005.8 |
| 20260505032555 | 75 | 86 | 1.0 | 5.0 | 0.00 | 0.00 | 0.00 | 75 | 1005.9 |
| 20260505032054 | 75 | 0 | 1.0 | 5.0 | 0.00 | 0.00 | 0.00 | 74 | 1005.8 |
| 20260505031554 | 75 | 109 | 1.0 | 5.0 | 0.00 | 0.00 | 0.00 | 74 | 1005.8 |
| 20260505031055 | 75 | 65 | 2.0 | 5.0 | 0.00 | 0.00 | 0.00 | 74 | 1005.8 |
| 20260505030555 | 75 | 0 | 1.0 | 6.0 | 0.00 | 0.00 | 0.00 | 74 | 1005.5 |
| 20260505030103 | 75 | 58 | 1.0 | 9.0 | 0.00 | 0.00 | 0.00 | 74 | 1005.7 |
| 20260505025556 | 75 | 64 | 1.0 | 9.0 | 0.00 | 0.00 | 0.00 | 73 | 1005.7 |
| 20260505025057 | 75 | 88 | 2.0 | 9.0 | 0.00 | 0.00 | 0.00 | 73 | 1005.7 |
| 20260505024603 | 75 | 49 | 1.0 | 6.0 | 0.00 | 0.00 | 0.00 | 73 | 1005.9 |
| 20260505024055 | 75 | 44 | 1.0 | 6.0 | 0.00 | 0.00 | 0.00 | 73 | 1005.6 |
| 20260505023555 | 76 | 45 | 1.0 | 4.0 | 0.00 | 0.00 | 0.00 | 73 | 1005.5 |
| 20260505023059 | 76 | 56 | 1.0 | 5.0 | 0.00 | 0.00 | 0.00 | 73 | 1005.6 |
| 20260505022559 | 76 | 36 | 1.0 | 5.0 | 0.00 | 0.00 | 0.00 | 73 | 1005.7 |
| 20260505022055 | 76 | 0 | 1.0 | 5.0 | 0.00 | 0.00 | 0.00 | 73 | 1005.8 |
| 20260505021559 | 76 | 38 | 1.0 | 3.0 | 0.00 | 0.00 | 0.00 | 72 | 1005.7 |
| 20260505021054 | 76 | 0 | 1.0 | 3.0 | 0.00 | 0.00 | 0.00 | 72 | 1005.6 |
| 20260505020555 | 76 | 45 | 1.0 | 4.0 | 0.00 | 0.00 | 0.00 | 72 | 1005.4 |
| 20260505015555 | 76 | 74 | 1.0 | 7.0 | 0.00 | 0.00 | 0.00 | 71 | 1005.3 |
| 20260505015055 | 76 | 73 | 2.0 | 7.0 | 0.00 | 0.00 | 0.00 | 71 | 1005.4 |
| 20260505014553 | 76 | 45 | 1.0 | 5.0 | 0.00 | 0.00 | 0.00 | 71 | 1005.2 |
| 20260505014100 | 77 | 241 | 1.0 | 4.0 | 0.00 | 0.00 | 0.00 | 71 | 1005.2 |
| 20260505013554 | 77 | 60 | 1.0 | 6.0 | 0.00 | 0.00 | 0.00 | 70 | 1005.4 |
| 20260505013059 | 77 | 186 | 1.0 | 6.0 | 0.00 | 0.00 | 0.00 | 70 | 1005.4 |
| 20260505012555 | 77 | 65 | 1.0 | 6.0 | 0.00 | 0.00 | 0.00 | 70 | 1005.3 |
| 20260505012055 | 77 | 282 | 1.0 | 6.0 | 0.00 | 0.00 | 0.00 | 69 | 1005.3 |
| 20260505011555 | 77 | 76 | 1.0 | 6.0 | 0.00 | 0.00 | 0.00 | 69 | 1005.3 |
| 20260505011056 | 78 | 40 | 1.0 | 7.0 | 0.00 | 0.00 | 0.00 | 68 | 1005.3 |
| 20260505010556 | 78 | 157 | 1.0 | 7.0 | 0.00 | 0.00 | 0.00 | 68 | 1005.3 |
| 20260505010111 | 78 | 36 | 1.0 | 6.0 | 0.00 | 0.00 | 0.00 | 68 | 1005.1 |
| 20260505005556 | 78 | 261 | 1.0 | 5.0 | 0.00 | 0.00 | 0.00 | 67 | 1005.2 |
| 20260505005056 | 79 | 82 | 1.0 | 6.0 | 0.00 | 0.00 | 0.00 | 67 | 1005.1 |
| 20260505004555 | 79 | 0 | 1.0 | 6.0 | 0.00 | 0.00 | 0.00 | 66 | 1005.2 |
| 20260505004055 | 79 | 78 | 1.0 | 6.0 | 0.00 | 0.00 | 0.00 | 66 | 1005.2 |
| 20260505003555 | 79 | 196 | 2.0 | 6.0 | 0.00 | 0.00 | 0.00 | 66 | 1005.4 |
| 20260505003114 | 79 | 226 | 2.0 | 5.0 | 0.00 | 0.00 | 0.00 | 66 | 1005.5 |
| 20260505002555 | 79 | 178 | 1.0 | 10.0 | 0.00 | 0.00 | 0.00 | 66 | 1005.4 |
| 20260505002055 | 79 | 176 | 0.0 | 10.0 | 0.00 | 0.00 | 0.00 | 65 | 1005.5 |
| 20260505001554 | 80 | 76 | 1.0 | 7.0 | 0.00 | 0.00 | 0.00 | 65 | 1005.5 |
| 20260505001054 | 80 | 80 | 2.0 | 8.0 | 0.00 | 0.00 | 0.00 | 65 | 1005.6 |
| 20260505000555 | 80 | 56 | 1.0 | 8.0 | 0.00 | 0.00 | 0.00 | 64 | 1005.7 |
| 20260504235555 | 80 | 30 | 2.0 | 9.0 | 0.00 | 0.00 | 0.00 | 64 | 1005.8 |
| 20260504235056 | 80 | 146 | 2.0 | 9.0 | 0.00 | 0.00 | 0.00 | 64 | 1005.7 |
| 20260504234601 | 80 | 96 | 0.0 | 6.0 | 0.00 | 0.00 | 0.00 | 64 | 1005.6 |
| 20260504234055 | 80 | 0 | 1.0 | 6.0 | 0.00 | 0.00 | 0.00 | 64 | 1005.9 |
| 20260504233557 | 80 | 0 | 1.0 | 7.0 | 0.00 | 0.00 | 0.00 | 64 | 1005.9 |
| 20260504233103 | 81 | 0 | 2.0 | 9.0 | 0.00 | 0.00 | 0.00 | 63 | 1005.8 |
| 20260504232556 | 81 | 94 | 2.0 | 9.0 | 0.00 | 0.00 | 0.00 | 62 | 1006.0 |
| 20260504232054 | 81 | 183 | 1.0 | 6.0 | 0.00 | 0.00 | 0.00 | 62 | 1006.0 |
| 20260504231558 | 81 | 202 | 1.0 | 8.0 | 0.00 | 0.00 | 0.00 | 62 | 1006.0 |
| 20260504231054 | 82 | 126 | 1.0 | 8.0 | 0.00 | 0.00 | 0.00 | 62 | 1006.0 |
| 20260504230555 | 82 | 304 | 2.0 | 8.0 | 0.00 | 0.00 | 0.00 | 62 | 1006.0 |
| 20260504230115 | 81 | 67 | 1.0 | 6.0 | 0.00 | 0.00 | 0.00 | 63 | 1006.2 |
| 20260504225555 | 81 | 80 | 2.0 | 11.0 | 0.00 | 0.00 | 0.00 | 63 | 1006.0 |
| 20260504225058 | 81 | 207 | 3.0 | 11.0 | 0.00 | 0.00 | 0.00 | 62 | 1006.2 |
| 20260504224612 | 82 | 46 | 2.0 | 9.0 | 0.00 | 0.00 | 0.00 | 62 | 1006.3 |
| 20260504224055 | 82 | 0 | 1.0 | 8.0 | 0.00 | 0.00 | 0.00 | 62 | 1006.3 |
| 20260504223555 | 82 | 0 | 2.0 | 8.0 | 0.00 | 0.00 | 0.00 | 62 | 1006.3 |
| 20260504223103 | 82 | 200 | 2.0 | 8.0 | 0.00 | 0.00 | 0.00 | 60 | 1006.3 |
| 20260504222554 | 83 | 164 | 1.0 | 8.0 | 0.00 | 0.00 | 0.00 | 61 | 1006.2 |
| 20260504222055 | 83 | 0 | 2.0 | 8.0 | 0.00 | 0.00 | 0.00 | 60 | 1006.4 |
| 20260504221556 | 83 | 103 | 1.0 | 7.0 | 0.00 | 0.00 | 0.00 | 61 | 1006.4 |
| 20260504221055 | 83 | 50 | 3.0 | 7.0 | 0.00 | 0.00 | 0.00 | 60 | 1006.6 |
| 20260504220555 | 83 | 129 | 2.0 | 7.0 | 0.00 | 0.00 | 0.00 | 60 | 1006.5 |
| 20260504220058 | 83 | 49 | 1.0 | 10.0 | 0.00 | 0.00 | 0.00 | 60 | 1006.7 |
| 20260504215554 | 83 | 96 | 2.0 | 10.0 | 0.00 | 0.00 | 0.00 | 61 | 1006.7 |
| 20260504215055 | 82 | 207 | 1.0 | 10.0 | 0.00 | 0.00 | 0.00 | 61 | 1006.8 |
| 20260504214558 | 82 | 30 | 1.0 | 10.0 | 0.00 | 0.00 | 0.00 | 61 | 1006.9 |
| 20260504214058 | 82 | 0 | 3.0 | 10.0 | 0.00 | 0.00 | 0.00 | 60 | 1006.9 |
| 20260504213554 | 82 | 69 | 2.0 | 9.0 | 0.00 | 0.00 | 0.00 | 60 | 1007.0 |
| 20260504213102 | 83 | 36 | 2.0 | 8.0 | 0.00 | 0.00 | 0.00 | 59 | 1007.1 |
| 20260504212557 | 83 | 320 | 2.0 | 7.0 | 0.00 | 0.00 | 0.00 | 60 | 1007.1 |
| 20260504212057 | 83 | 0 | 2.0 | 12.0 | 0.00 | 0.00 | 0.00 | 60 | 1007.2 |
| 20260504211600 | 83 | 61 | 1.0 | 12.0 | 0.00 | 0.00 | 0.00 | 59 | 1007.3 |
| 20260504211055 | 83 | 184 | 3.0 | 12.0 | 0.00 | 0.00 | 0.00 | 59 | 1007.6 |
| 20260504210559 | 84 | 85 | 2.0 | 6.0 | 0.00 | 0.00 | 0.00 | 58 | 1007.5 |
| 20260504205555 | 84 | 124 | 2.0 | 10.0 | 0.00 | 0.00 | 0.00 | 59 | 1007.7 |
| 20260504205055 | 84 | 209 | 3.0 | 13.0 | 0.00 | 0.00 | 0.00 | 59 | 1007.6 |
| 20260504204556 | 84 | 150 | 2.0 | 13.0 | 0.00 | 0.00 | 0.00 | 58 | 1007.8 |
| 20260504204059 | 84 | 163 | 2.0 | 9.0 | 0.00 | 0.00 | 0.00 | 57 | 1008.0 |
| 20260504203555 | 84 | 352 | 2.0 | 7.0 | 0.00 | 0.00 | 0.00 | 57 | 1007.9 |
| 20260504203057 | 84 | 0 | 3.0 | 7.0 | 0.00 | 0.00 | 0.00 | 58 | 1007.9 |
| 20260504202555 | 86 | 44 | 1.0 | 7.0 | 0.00 | 0.00 | 0.00 | 57 | 1008.1 |
| 20260504202058 | 85 | 213 | 1.0 | 10.0 | 0.00 | 0.00 | 0.00 | 58 | 1008.2 |
| 20260504201604 | 84 | 27 | 3.0 | 10.0 | 0.00 | 0.00 | 0.00 | 57 | 1008.1 |
| 20260504201054 | 84 | 42 | 3.0 | 10.0 | 0.00 | 0.00 | 0.00 | 57 | 1008.3 |
| 20260504200555 | 85 | 117 | 3.0 | 9.0 | 0.00 | 0.00 | 0.00 | 55 | 1008.5 |
| 20260504195554 | 85 | 0 | 1.0 | 11.0 | 0.00 | 0.00 | 0.00 | 60 | 1008.7 |
| 20260504195052 | 84 | 145 | 2.0 | 11.0 | 0.00 | 0.00 | 0.00 | 57 | 1008.7 |
| 20260504194555 | 84 | 142 | 3.0 | 11.0 | 0.00 | 0.00 | 0.00 | 59 | 1009.1 |
| 20260504194055 | 84 | 134 | 2.0 | 9.0 | 0.00 | 0.00 | 0.00 | 56 | 1009.1 |
| 20260504193555 | 85 | 31 | 1.0 | 6.0 | 0.00 | 0.00 | 0.00 | 57 | 1009.0 |
| 20260504193058 | 85 | 126 | 1.0 | 7.0 | 0.00 | 0.00 | 0.00 | 57 | 1009.1 |
| 20260504192555 | 85 | 146 | 1.0 | 7.0 | 0.00 | 0.00 | 0.00 | 59 | 1009.2 |
| 20260504192055 | 84 | 107 | 2.0 | 12.0 | 0.00 | 0.00 | 0.00 | 58 | 1009.4 |
| 20260504191608 | 84 | 144 | 1.0 | 12.0 | 0.00 | 0.00 | 0.00 | 58 | 1009.4 |
| 20260504191055 | 83 | 168 | 2.0 | 7.0 | 0.00 | 0.00 | 0.00 | 57 | 1009.4 |
| 20260504190559 | 84 | 17 | 2.0 | 8.0 | 0.00 | 0.00 | 0.00 | 59 | 1009.4 |
| 20260504190055 | 84 | 192 | 2.0 | 10.0 | 0.00 | 0.00 | 0.00 | 57 | 1009.6 |
| 20260504185554 | 84 | 9 | 2.0 | 10.0 | 0.00 | 0.00 | 0.00 | 59 | 1009.6 |
| 20260504185055 | 83 | 64 | 2.0 | 10.0 | 0.00 | 0.00 | 0.00 | 57 | 1009.7 |
| 20260504184555 | 83 | 223 | 3.0 | 8.0 | 0.00 | 0.00 | 0.00 | 57 | 1009.7 |
| 20260504184054 | 84 | 325 | 1.0 | 7.0 | 0.00 | 0.00 | 0.00 | 57 | 1009.8 |
| 20260504183554 | 83 | 150 | 2.0 | 9.0 | 0.00 | 0.00 | 0.00 | 60 | 1009.8 |
| 20260504183053 | 83 | 29 | 2.0 | 9.0 | 0.00 | 0.00 | 0.00 | 59 | 1009.8 |
| 20260504182559 | 82 | 226 | 2.0 | 8.0 | 0.00 | 0.00 | 0.00 | 60 | 1010.0 |
| 20260504182052 | 83 | 314 | 1.0 | 8.0 | 0.00 | 0.00 | 0.00 | 62 | 1010.1 |
| 20260504181559 | 82 | 346 | 2.0 | 8.0 | 0.00 | 0.00 | 0.00 | 57 | 1010.2 |
| 20260504181052 | 82 | 352 | 1.0 | 7.0 | 0.00 | 0.00 | 0.00 | 59 | 1010.3 |
| 20260504180554 | 82 | 89 | 1.0 | 7.0 | 0.00 | 0.00 | 0.00 | 61 | 1010.5 |
| 20260504180052 | 82 | 194 | 2.0 | 9.0 | 0.00 | 0.00 | 0.00 | 60 | 1010.4 |
| 20260504175554 | 82 | 234 | 1.0 | 9.0 | 0.00 | 0.00 | 0.00 | 62 | 1010.7 |
| 20260504175055 | 81 | 158 | 2.0 | 8.0 | 0.00 | 0.00 | 0.00 | 62 | 1010.8 |
| 20260504174559 | 81 | 0 | 2.0 | 8.0 | 0.00 | 0.00 | 0.00 | 62 | 1010.7 |
| 20260504174059 | 81 | 78 | 2.0 | 8.0 | 0.00 | 0.00 | 0.00 | 61 | 1010.7 |
| 20260504173556 | 81 | 100 | 2.0 | 6.0 | 0.00 | 0.00 | 0.00 | 60 | 1010.8 |
| 20260504173058 | 81 | 124 | 2.0 | 7.0 | 0.00 | 0.00 | 0.00 | 63 | 1010.9 |
| 20260504172556 | 80 | 187 | 2.0 | 8.0 | 0.00 | 0.00 | 0.00 | 63 | 1011.0 |
| 20260504172055 | 81 | 201 | 1.0 | 8.0 | 0.00 | 0.00 | 0.00 | 64 | 1011.1 |
| 20260504171559 | 79 | 301 | 2.0 | 8.0 | 0.00 | 0.00 | 0.00 | 63 | 1011.2 |
| 20260504171056 | 79 | 71 | 3.0 | 8.0 | 0.00 | 0.00 | 0.00 | 62 | 1011.4 |
| 20260504170556 | 78 | 195 | 3.0 | 8.0 | 0.00 | 0.00 | 0.00 | 62 | 1011.5 |
| 20260504160107 | 76 | 288 | 1.0 | 6.0 | 0.00 | 0.00 | 0.00 | 65 | 1012.2 |